AEROCUBE 8D

Last updated on Tue Dec 16 2025 00:03:50 GMT+0000 (Coordinated Universal Time)

1 41852U 16067E 25349.11431822 .00005816 00000+0 26498-3 0 9996 2 41852 98.0902 200.4091 0005069 58.9402 301.2329 15.21103114498059
UTC large
Height (km)
Speed (km/s)
/
Latitude / Longitude
Inclination (degrees)
Orbital Period (minutes)
Azimuth
Elevation
Range (km)
Doppler Factor

Next 0 passes for location: London (51.5072 / 0.1276)

Sorry there are no passes over London.